User: anonymous   Login
Location: Lawrence
(38.9720°N, 95.2350°W)
Time: 11:52:19
(UTC-05:00)
Language:

ALOS - Orbit

View from above orbital plane
View from above orbital plane
View from above satellite
View from above satellite

Ground track
Ground track

The orbit data is extracted from the following two-line orbital elements,

1 28931U 06002A   16274.52970034  .00000354  00000-0  79012-4 0  9996
2 28931  97.8748 308.4842 0002328  71.6626 288.4832 14.62247468569515
Epoch (UTC): 30 September 2016 12:42:46
Eccentricity: 0.0002328
inclination: 97.8748°
perigee height: 684 km
apogee height: 687 km
right ascension of ascending node: 308.4842°
argument of perigee: 71.6626°
revolutions per day: 14.62247468
mean anomaly at epoch: 288.4832°
orbit number at epoch: 56951

The dashed part of the orbit path shows where the satellite is in the earth's shadow,  

DLR